Regional Weather Roundup
Issued by NWS

Home | Current Version | Previous Version | Graphics & Text | Print | Product List | Glossary On
Versions: 1 2 3 4 5 6 7 8 9 10 11 12 13 14 15 16 17 18 19 20 21 22 23 24 25 26 27
000
ASUS45 KPSR 230910
RWRAZ

ARIZONA HOURLY REGIONAL WEATHER ROUNDUP
NATIONAL WEATHER SERVICE PHOENIX AZ
200 AM MST MON OCT 23 2017

NOTE: FAIR INDICATES FEW OR NO CLOUDS BELOW 12,000 FEET WITH NO
SIGNIFICANT WEATHER AND/OR OBSTRUCTIONS TO VISIBILITY.

AZZ001>003-036-231000-
NORTHWEST ARIZONA

CITY           SKY/WX    TMP DP  RH WIND       PRES   REMARKS
BULLHEAD CITY  CLEAR     77  27  15 N18       30.13S
KINGMAN        CLEAR     51  26  37 E6        30.30S
$$

AZZ004>008-015-016-018-231000-
NORTH CENTRAL ARIZONA

CITY           SKY/WX    TMP DP  RH WIND       PRES   REMARKS
GRAND CANYON   PTCLDY    29  13  51 NE7       30.49R WCI  22
WILLIAMS       CLOUDY    36  19  51 S12       30.46F WCI  27
PRESCOTT       CLEAR     45  26  47 S6        30.37S
FLAGSTAFF      PTCLDY    28  12  51 CALM      30.49S
PAYSON         CLEAR     59  21  23 E5        30.37S
PAGE           CLEAR     54  22  28 CALM      30.38R
$$

AZZ009>014-017-231000-
NORTHEAST ARIZONA

CITY           SKY/WX    TMP DP  RH WIND       PRES   REMARKS
WINSLOW        PTCLDY    40  12  32 CALM      30.41R
SAINT JOHNS    PTCLDY    43  18  36 S6        30.42S
WINDOW ROCK    CLEAR     30  14  51 CALM      30.46S
SHOW LOW       CLEAR     43  14  31 CALM      30.46S
$$

AZZ540-542>544-546-548-231000-
GREATER PHOENIX AREA

CITY           SKY/WX    TMP DP  RH WIND       PRES   REMARKS
PHOENIX        CLEAR     69  28  21 CALM      30.08S
BUCKEYE        CLEAR     68  14  12 N7        30.09S
LUKE AFB       CLEAR     64  27  24 NE7       30.08R
DEER VALLEY    CLEAR     70  19  14 NE7       30.10S
SCOTTSDALE     CLEAR     67  29  24 CALM      30.12R
MESA-GATEWAY   CLEAR     59  27  29 CALM      30.11S
$$

AZZ539-553-231000-
SOUTHWEST MARICOPA COUNTY AND PINAL COUNTY

CITY           SKY/WX    TMP DP  RH WIND       PRES   REMARKS
CASA GRANDE    NOT AVBL
$$

AZZ503-504-507>509-231000-
SOUTHEAST ARIZONA

CITY           SKY/WX    TMP DP  RH WIND       PRES   REMARKS
TUCSON         CLEAR     61  24  24 SE7       30.18S
DAVIS-MONTHAN  CLEAR     59  22  24 SE9       30.16S
NOGALES        CLEAR     53  26  35 CALM      30.23S
SIERRA VISTA   CLEAR     57  22  25 CALM      30.29F
DOUGLAS        CLEAR     46  21  37 N3        30.26S
SAFFORD        CLEAR     51  14  22 CALM      30.22R
$$

AZZ532-231000-
SOUTHWEST ARIZONA

CITY           SKY/WX    TMP DP  RH WIND       PRES   REMARKS
YUMA           CLEAR     67  31  26 CALM      30.05S
$$

CAZ041-043-047-048-061-525>527-560>570-231000-
SOUTHERN CALIFORNIA

CITY           SKY/WX    TMP DP  RH WIND       PRES   REMARKS
DOWNTOWN L.A.  CLEAR     68  49  50 CALM      30.05S
L.A. AIRPORT   PTCLDY    72  42  34 VRB3      30.05S
SAN DIEGO      CLEAR     66  43  43 CALM      30.06S
BURBANK        CLEAR     67  35  30 CALM      30.08S
ONTARIO        CLEAR     68  37  32 N6        30.10S
RIVERSIDE      CLEAR     67  37  33 E7        30.11S
PALM SPRINGS   CLEAR     74  33  22 NW6       30.11F
EL CENTRO NAS  CLEAR     64  18  17 W8        30.07S
IMPERIAL       CLEAR     64  27  24 W5        30.05S
BLYTHE         CLEAR     70  25  18 SW5       30.10R
NEEDLES        CLEAR     71  28  20 NW8       30.15R
$$

NVZ020-UTZ003-231000-
SOUTHERN NEVADA-UTAH

CITY           SKY/WX    TMP DP  RH WIND       PRES   REMARKS
LAS VEGAS      CLEAR     64  29  26 CALM      30.26S
SALT LAKE CITY PTCLDY    51  35  54 CALM      30.45R
$$

NMZ009-TXZ055-231000-
NEW MEXICO-WEST TEXAS

CITY           SKY/WX    TMP DP  RH WIND       PRES   REMARKS
ALBUQUERQUE    CLOUDY    58  22  24 N8        30.37S
EL PASO        PTCLDY    50  22  33 CALM      30.24S
$$


........................KEY........................
SKY/WX - SKY CONDITION/WEATHER
TMP    - TEMPERATURE IN FAHRENHEIT
DP     - DEW POINT IN FAHRENHEIT
RH     - RELATIVE HUMIDITY IN PERCENT
WIND   - DIRECTION AND SPEED IN MILES PER HOUR (MPH)
VRB    - VARIABLE WIND DIRECTION
PRES   - MEAN SEA LEVEL PRESSURE IN INCHES OF MERCURY
         F - FALLING PRESSURE   R - RISING PRESSURE
         S - STEADY PRESSURE
VSB    - VISIBILITY IN MILES
HX     - HEAT INDEX IN FAHRENHEIT
WCI    - WIND CHILL INDEX IN FAHRENHEIT
TC     - TEMPERATURE IN CELSIUS WHICH IS ALSO KNOWN AS
         TEMPERATURE IN CENTIGRADE
AFB    - AIR FORCE BASE
         LUKE AFB IS LUKE AIR FORCE BASE
         DAVIS-MONTHAN IS DAVIS-MONTHAN AIR FORCE BASE
NAS    - NAVAL AIR STATION
         EL CENTRO NAS IS EL CENTRO NAVAL AIR STATION
N/A    - NOT AVAILABLE





USA.gov is the U.S. government's official web portal to all federal, state and local government web resources and services.